Airfield :
LOGIN :

Register | Disclaimer

   EN    FR    IT 

 










Legend :    VFR   Marginal VFR   IFR   Intensive IFR   Very Intensive IFR
Visi :
Ceiling :
>= 8 km
>= 3000ft
5 to 8 km
1000 to 3000 ft
1500m to 5 km
500 to 1000 ft
800 to 1500m
200 to 500 ft
< 800m
< 200 ft
Symbols :   Thunderstorms  Fog  Heavy snow  Heavy precipitations  Wind > 20 kt
SIGMETs :     Misc.  Thunderstorms  Icing  Turbulence  Mountain Waves  Volcanic Ashes






- Airport Elevation : 80 ft
- IATA code : LPL


EGGP - Liverpool John Lennon

CURRENT METAR :
  • 290850Z 02015KT 9999 FEW030 SCT035 05/M02 Q1044

EXPIRED METARs :
  • 290820Z 02011KT 350V070 9999 SCT036 04/M03 Q1044
  • 290750Z 36010KT 9999 SCT033 05/M02 Q1044
  • 290720Z 35009KT 9999 SCT032 04/M02 Q1043
  • 290650Z 35007KT CAVOK 04/M01 Q1043
  • 290620Z 35007KT CAVOK 03/M02 Q1043

TAF TAF EGGP
Valid from the 29 at 06:00 until the 30 at 06:00 UTC


290500Z 2906/3006 02012KT 9999 FEW035
PROB30
TEMPO 2909/2914 03015G25KT
BECMG 2921/2924 32005KT
ATIS : +44 151 907 2000 (option 5 or ext 5150)
Met : +44 871 750 5150



MET'MAP, your aeronautical weather chart ! - Copyright ORBIFLY December 2007 - Disclaimer

ORBIFLY MET'MAP TEAM :

Programming & Development : Alexandra Zaïnal
Concept & original design : Baudouin d'Aumeries
Assistance for programming : Marc-Olivier Méhu
Technical & hardware support : Manuel Goepfert

Contact : metmap@orbifly.com




SOURCES & CREDITS :

   NOAA